Time,TemperatureF,DewpointF,PressureIn,WindDirection,WindDirectionDegrees,WindSpeedMPH,WindSpeedGustMPH,Humidity,HourlyPrecipIn,Conditions,Clouds,dailyrainin,SolarRadiationWatts/m^2,SoftwareType,DateUTC
2013-08-09 00:00:00,56.6,51.2,29.99,East,87,0.0,0.0,82,0.00,,,0.00,0,Wunderground v.1.15,2013-08-09 07:00:00,
2013-08-09 00:10:00,56.4,51.3,29.98,North,9,0.0,0.0,83,0.00,,,0.00,0,Wunderground v.1.15,2013-08-09 07:10:00,
2013-08-09 00:20:00,56.2,51.1,29.98,North,5,0.0,0.0,83,0.00,,,0.00,0,Wunderground v.1.15,2013-08-09 07:20:00,
2013-08-09 00:30:00,56.1,51.3,29.98,North,5,0.0,0.0,84,0.00,,,0.00,0,Wunderground v.1.15,2013-08-09 07:30:00,
2013-08-09 00:40:00,55.9,51.1,29.98,West,280,0.0,0.0,84,0.00,,,0.00,0,Wunderground v.1.15,2013-08-09 07:40:00,
2013-08-09 00:50:00,55.9,51.5,29.98,WNW,297,0.0,0.0,85,0.00,,,0.00,0,Wunderground v.1.15,2013-08-09 07:50:00,
2013-08-09 01:00:00,55.8,51.4,29.98,NW,316,0.0,0.0,85,0.00,,,0.00,0,Wunderground v.1.15,2013-08-09 08:00:00,
2013-08-09 01:10:00,55.7,51.3,29.97,SW,224,0.0,0.0,85,0.00,,,0.00,0,Wunderground v.1.15,2013-08-09 08:10:00,
2013-08-09 01:20:00,55.6,51.2,29.97,SW,224,0.0,0.0,85,0.00,,,0.00,0,Wunderground v.1.15,2013-08-09 08:20:00,
2013-08-09 01:30:00,55.5,51.4,29.97,SW,224,0.0,0.0,86,0.00,,,0.00,0,Wunderground v.1.15,2013-08-09 08:30:00,
2013-08-09 01:40:00,55.5,51.4,29.97,SW,225,0.0,0.0,86,0.00,,,0.00,0,Wunderground v.1.15,2013-08-09 08:40:00,
2013-08-09 01:50:00,55.4,51.3,29.97,NNW,334,0.0,0.0,86,0.00,,,0.00,0,Wunderground v.1.15,2013-08-09 08:50:00,
2013-08-09 02:00:00,55.4,51.3,29.97,NNW,334,0.0,0.0,86,0.00,,,0.00,0,Wunderground v.1.15,2013-08-09 09:00:00,
2013-08-09 02:10:00,55.4,51.6,29.97,NE,48,0.0,0.0,87,0.00,,,0.00,0,Wunderground v.1.15,2013-08-09 09:10:00,
2013-08-09 02:20:00,55.5,51.7,29.97,ENE,66,0.0,0.0,87,0.00,,,0.00,0,Wunderground v.1.15,2013-08-09 09:20:00,
2013-08-09 02:30:00,55.7,51.9,29.97,NNW,331,1.0,1.0,87,0.00,,,0.00,0,Wunderground v.1.15,2013-08-09 09:30:00,
2013-08-09 02:40:00,55.9,52.1,29.97,NNE,26,0.0,1.0,87,0.00,,,0.00,0,Wunderground v.1.15,2013-08-09 09:40:00,
2013-08-09 02:50:00,55.9,52.1,29.97,SW,233,1.0,1.0,87,0.00,,,0.00,0,Wunderground v.1.15,2013-08-09 09:50:00,
2013-08-09 03:00:00,56.0,52.2,29.97,NW,306,0.0,0.0,87,0.00,,,0.00,0,Wunderground v.1.15,2013-08-09 10:00:00,
2013-08-09 03:10:00,56.1,52.3,29.96,NNE,29,0.0,0.0,87,0.00,,,0.00,0,Wunderground v.1.15,2013-08-09 10:10:00,
2013-08-09 03:20:00,56.0,52.2,29.96,SE,142,1.0,1.0,87,0.00,,,0.00,0,Wunderground v.1.15,2013-08-09 10:20:00,
2013-08-09 03:30:00,55.9,52.1,29.96,WSW,244,1.0,1.0,87,0.00,,,0.00,0,Wunderground v.1.15,2013-08-09 10:30:00,
2013-08-09 03:40:00,55.8,51.7,29.96,NNW,329,1.0,1.0,86,0.00,,,0.00,0,Wunderground v.1.15,2013-08-09 10:40:00,
2013-08-09 03:50:00,55.8,51.7,29.96,South,182,0.0,1.0,86,0.00,,,0.00,0,Wunderground v.1.15,2013-08-09 10:50:00,
2013-08-09 04:00:00,55.7,51.6,29.96,SSE,157,0.0,0.0,86,0.00,,,0.00,0,Wunderground v.1.15,2013-08-09 11:00:00,
2013-08-09 04:10:00,55.8,51.7,29.96,SSE,157,0.0,0.0,86,0.00,,,0.00,0,Wunderground v.1.15,2013-08-09 11:10:00,
2013-08-09 04:20:00,56.0,51.9,29.96,SSE,157,0.0,0.0,86,0.00,,,0.00,0,Wunderground v.1.15,2013-08-09 11:20:00,
2013-08-09 04:30:00,56.0,51.9,29.96,SSE,157,0.0,0.0,86,0.00,,,0.00,0,Wunderground v.1.15,2013-08-09 11:30:00,
2013-08-09 04:40:00,56.2,52.1,29.95,SSE,153,0.0,0.0,86,0.00,,,0.00,0,Wunderground v.1.15,2013-08-09 11:40:00,
2013-08-09 04:50:00,56.2,52.1,29.96,SSE,168,0.0,0.0,86,0.00,,,0.00,0,Wunderground v.1.15,2013-08-09 11:50:00,
2013-08-09 05:00:00,56.3,52.2,29.95,East,94,0.0,1.0,86,0.00,,,0.00,0,Wunderground v.1.15,2013-08-09 12:00:00,
2013-08-09 05:10:00,56.3,52.2,29.95,NNE,28,0.0,0.0,86,0.00,,,0.00,0,Wunderground v.1.15,2013-08-09 12:10:00,
2013-08-09 05:20:00,56.3,52.2,29.95,SSE,164,0.0,1.0,86,0.00,,,0.00,0,Wunderground v.1.15,2013-08-09 12:20:00,
2013-08-09 05:30:00,56.2,52.1,29.96,South,173,1.0,1.0,86,0.00,,,0.00,0,Wunderground v.1.15,2013-08-09 12:30:00,
2013-08-09 05:40:00,56.3,52.2,29.95,South,171,1.0,1.0,86,0.00,,,0.00,0,Wunderground v.1.15,2013-08-09 12:40:00,
2013-08-09 05:50:00,56.3,51.8,29.96,South,174,0.0,0.0,85,0.00,,,0.00,0,Wunderground v.1.15,2013-08-09 12:50:00,
2013-08-09 06:00:00,56.3,51.8,29.96,SE,146,1.0,4.0,85,0.00,,,0.00,0,Wunderground v.1.15,2013-08-09 13:00:00,
2013-08-09 06:10:00,56.4,51.9,29.96,SE,137,2.0,2.0,85,0.00,,,0.00,0,Wunderground v.1.15,2013-08-09 13:10:00,
2013-08-09 06:20:00,56.4,51.9,29.96,SSE,160,1.0,1.0,85,0.00,,,0.00,0,Wunderground v.1.15,2013-08-09 13:20:00,
2013-08-09 06:30:00,56.5,52.0,29.96,SSE,160,0.0,2.0,85,0.00,,,0.00,5,Wunderground v.1.15,2013-08-09 13:30:00,
2013-08-09 06:40:00,56.6,52.1,29.97,SSE,167,0.0,4.0,85,0.00,,,0.00,14,Wunderground v.1.15,2013-08-09 13:40:00,
2013-08-09 06:50:00,56.9,52.4,29.96,South,183,1.0,1.0,85,0.00,,,0.00,30,Wunderground v.1.15,2013-08-09 13:50:00,
2013-08-09 07:00:00,57.1,52.6,29.97,SSE,148,1.0,2.0,85,0.00,,,0.00,33,Wunderground v.1.15,2013-08-09 14:00:00,
2013-08-09 07:10:00,57.3,52.5,29.97,SE,146,2.0,4.0,84,0.00,,,0.00,58,Wunderground v.1.15,2013-08-09 14:10:00,
2013-08-09 07:20:00,57.5,52.7,29.97,SSE,153,1.0,1.0,84,0.00,,,0.00,62,Wunderground v.1.15,2013-08-09 14:20:00,
2013-08-09 07:30:00,57.7,53.2,29.97,SSE,153,1.0,1.0,85,0.00,,,0.00,58,Wunderground v.1.15,2013-08-09 14:30:00,
2013-08-09 07:40:00,58.2,53.7,29.97,SSE,153,0.0,0.0,85,0.00,,,0.00,58,Wunderground v.1.15,2013-08-09 14:40:00,
2013-08-09 07:50:00,58.5,54.0,29.98,East,97,0.0,0.0,85,0.00,,,0.00,72,Wunderground v.1.15,2013-08-09 14:50:00,
2013-08-09 08:00:00,58.6,53.8,29.98,ENE,78,1.0,2.0,84,0.00,,,0.00,91,Wunderground v.1.15,2013-08-09 15:00:00,
2013-08-09 08:10:00,59.0,53.8,29.98,ENE,76,1.0,1.0,83,0.00,,,0.00,104,Wunderground v.1.15,2013-08-09 15:10:00,
2013-08-09 08:20:00,59.0,54.2,29.98,WNW,284,0.0,0.0,84,0.00,,,0.00,116,Wunderground v.1.15,2013-08-09 15:20:00,
2013-08-09 08:30:00,59.0,54.2,29.98,NW,325,0.0,0.0,84,0.00,,,0.00,188,Wunderground v.1.15,2013-08-09 15:30:00,
2013-08-09 08:40:00,59.4,54.2,29.98,SW,220,1.0,1.0,83,0.00,,,0.00,192,Wunderground v.1.15,2013-08-09 15:40:00,
2013-08-09 08:50:00,60.5,55.3,29.98,NW,307,1.0,1.0,83,0.00,,,0.00,341,Wunderground v.1.15,2013-08-09 15:50:00,
2013-08-09 09:00:00,61.4,55.2,29.98,NNE,29,1.0,1.0,80,0.00,,,0.00,172,Wunderground v.1.15,2013-08-09 16:00:00,
2013-08-09 09:10:00,61.2,55.0,29.98,NNE,13,1.0,1.0,80,0.00,,,0.00,158,Wunderground v.1.15,2013-08-09 16:10:00,
2013-08-09 09:20:00,60.9,54.7,29.98,North,11,1.0,1.0,80,0.00,,,0.00,158,Wunderground v.1.15,2013-08-09 16:20:00,
2013-08-09 09:30:00,61.8,55.2,29.98,NNE,14,0.0,3.0,79,0.00,,,0.00,336,Wunderground v.1.15,2013-08-09 16:30:00,
2013-08-09 09:40:00,63.5,55.8,29.98,NNE,30,1.0,2.0,76,0.00,,,0.00,596,Wunderground v.1.15,2013-08-09 16:40:00,
2013-08-09 09:50:00,64.7,56.2,29.98,NNW,331,1.0,1.0,74,0.00,,,0.00,606,Wunderground v.1.15,2013-08-09 16:50:00,
2013-08-09 10:00:00,65.9,56.2,29.98,WNW,300,1.0,1.0,71,0.00,,,0.00,636,Wunderground v.1.15,2013-08-09 17:00:00,
2013-08-09 10:10:00,66.3,56.6,29.98,NE,53,1.0,1.0,71,0.00,,,0.00,645,Wunderground v.1.15,2013-08-09 17:10:00,
2013-08-09 10:20:00,66.9,56.4,29.98,North,11,1.0,1.0,69,0.00,,,0.00,687,Wunderground v.1.15,2013-08-09 17:20:00,
2013-08-09 10:30:00,67.7,56.8,29.98,North,5,1.0,1.0,68,0.00,,,0.00,701,Wunderground v.1.15,2013-08-09 17:30:00,
2013-08-09 10:40:00,68.0,57.0,29.98,NNE,30,1.0,1.0,68,0.00,,,0.00,729,Wunderground v.1.15,2013-08-09 17:40:00,
2013-08-09 10:50:00,68.5,56.7,29.98,NE,46,1.0,2.0,66,0.00,,,0.00,751,Wunderground v.1.15,2013-08-09 17:50:00,
2013-08-09 11:00:00,69.4,57.5,29.98,North,350,1.0,3.0,66,0.00,,,0.00,766,Wunderground v.1.15,2013-08-09 18:00:00,
2013-08-09 11:10:00,68.7,56.5,29.98,NW,323,1.0,1.0,65,0.00,,,0.00,782,Wunderground v.1.15,2013-08-09 18:10:00,
2013-08-09 11:20:00,69.0,56.7,29.98,West,261,1.0,2.0,65,0.00,,,0.00,793,Wunderground v.1.15,2013-08-09 18:20:00,
2013-08-09 11:30:00,69.4,56.3,29.98,West,266,1.0,1.0,63,0.00,,,0.00,814,Wunderground v.1.15,2013-08-09 18:30:00,
2013-08-09 11:40:00,70.1,56.9,29.98,NNW,344,1.0,3.0,63,0.00,,,0.00,828,Wunderground v.1.15,2013-08-09 18:40:00,
2013-08-09 11:50:00,69.5,56.3,29.98,North,5,1.0,3.0,63,0.00,,,0.00,849,Wunderground v.1.15,2013-08-09 18:50:00,
2013-08-09 12:00:00,69.9,56.3,29.98,WSW,245,1.0,3.0,62,0.00,,,0.00,865,Wunderground v.1.15,2013-08-09 19:00:00,
2013-08-09 12:10:00,69.9,55.8,29.98,WNW,285,2.0,2.0,61,0.00,,,0.00,877,Wunderground v.1.15,2013-08-09 19:10:00,
2013-08-09 12:20:00,70.7,57.0,29.98,WNW,300,2.0,2.0,62,0.00,,,0.00,884,Wunderground v.1.15,2013-08-09 19:20:00,
2013-08-09 12:30:00,71.3,56.2,29.98,ENE,68,1.0,2.0,59,0.00,,,0.00,888,Wunderground v.1.15,2013-08-09 19:30:00,
2013-08-09 12:40:00,71.1,57.0,29.98,NW,309,1.0,1.0,61,0.00,,,0.00,895,Wunderground v.1.15,2013-08-09 19:40:00,
2013-08-09 12:50:00,72.0,57.4,29.98,WNW,294,1.0,1.0,60,0.00,,,0.00,889,Wunderground v.1.15,2013-08-09 19:50:00,
2013-08-09 13:00:00,71.8,57.2,29.98,ENE,57,1.0,1.0,60,0.00,,,0.00,886,Wunderground v.1.15,2013-08-09 20:00:00,
2013-08-09 13:10:00,72.4,56.8,29.98,NNE,30,1.0,1.0,58,0.00,,,0.00,888,Wunderground v.1.15,2013-08-09 20:10:00,
2013-08-09 13:20:00,71.5,56.4,29.98,WNW,292,2.0,2.0,59,0.00,,,0.00,884,Wunderground v.1.15,2013-08-09 20:20:00,
2013-08-09 13:30:00,73.0,56.9,29.98,WSW,251,1.0,1.0,57,0.00,,,0.00,874,Wunderground v.1.15,2013-08-09 20:30:00,
2013-08-09 13:40:00,73.4,56.2,29.98,North,355,1.0,1.0,55,0.00,,,0.00,875,Wunderground v.1.15,2013-08-09 20:40:00,
2013-08-09 13:50:00,73.3,57.1,29.97,ESE,102,1.0,1.0,57,0.00,,,0.00,870,Wunderground v.1.15,2013-08-09 20:50:00,
2013-08-09 14:00:00,74.2,58.0,29.97,SW,217,1.0,2.0,57,0.00,,,0.00,858,Wunderground v.1.15,2013-08-09 21:00:00,
2013-08-09 14:10:00,74.4,57.2,29.97,East,88,1.0,2.0,55,0.00,,,0.00,846,Wunderground v.1.15,2013-08-09 21:10:00,
2013-08-09 14:20:00,75.1,57.3,29.97,NE,40,1.0,1.0,54,0.00,,,0.00,840,Wunderground v.1.15,2013-08-09 21:20:00,
2013-08-09 14:30:00,74.4,56.7,29.96,ENE,69,1.0,1.0,54,0.00,,,0.00,824,Wunderground v.1.15,2013-08-09 21:30:00,
2013-08-09 14:40:00,75.3,57.0,29.96,NW,309,0.0,2.0,53,0.00,,,0.00,473,Wunderground v.1.15,2013-08-09 21:40:00,
2013-08-09 14:50:00,75.7,57.4,29.96,NW,323,1.0,1.0,53,0.00,,,0.00,394,Wunderground v.1.15,2013-08-09 21:50:00,
2013-08-09 15:00:00,75.8,56.9,29.96,NNE,26,1.0,2.0,52,0.00,,,0.00,309,Wunderground v.1.15,2013-08-09 22:00:00,
2013-08-09 15:10:00,76.2,56.7,29.96,WNW,297,1.0,6.0,51,0.00,,,0.00,279,Wunderground v.1.15,2013-08-09 22:10:00,
2013-08-09 15:20:00,76.1,56.7,29.96,North,5,1.0,1.0,51,0.00,,,0.00,111,Wunderground v.1.15,2013-08-09 22:20:00,
2013-08-09 15:30:00,76.5,57.0,29.96,SSW,207,1.0,1.0,51,0.00,,,0.00,204,Wunderground v.1.15,2013-08-09 22:30:00,
2013-08-09 15:40:00,76.3,56.8,29.95,West,266,1.0,1.0,51,0.00,,,0.00,722,Wunderground v.1.15,2013-08-09 22:40:00,
2013-08-09 15:50:00,75.5,56.6,29.96,NE,36,0.0,0.0,52,0.00,,,0.00,700,Wunderground v.1.15,2013-08-09 22:50:00,
2013-08-09 16:00:00,74.4,56.2,29.95,North,10,1.0,1.0,53,0.00,,,0.00,599,Wunderground v.1.15,2013-08-09 23:00:00,
2013-08-09 16:10:00,75.0,56.2,29.95,NW,321,1.0,4.0,52,0.00,,,0.00,635,Wunderground v.1.15,2013-08-09 23:10:00,
2013-08-09 16:20:00,75.2,56.4,29.95,NE,46,1.0,4.0,52,0.00,,,0.00,635,Wunderground v.1.15,2013-08-09 23:20:00,
2013-08-09 16:30:00,75.1,56.3,29.94,SSE,154,1.0,1.0,52,0.00,,,0.00,603,Wunderground v.1.15,2013-08-09 23:30:00,
2013-08-09 16:40:00,75.3,55.9,29.94,NNE,30,0.0,0.0,51,0.00,,,0.00,575,Wunderground v.1.15,2013-08-09 23:40:00,
2013-08-09 16:50:00,74.9,56.1,29.94,NNW,341,1.0,1.0,52,0.00,,,0.00,533,Wunderground v.1.15,2013-08-09 23:50:00,
2013-08-09 17:00:00,74.7,56.4,29.94,SE,125,1.0,1.0,53,0.00,,,0.00,362,Wunderground v.1.15,2013-08-10 00:00:00,
2013-08-09 17:10:00,73.9,56.2,29.94,NE,34,1.0,1.0,54,0.00,,,0.00,95,Wunderground v.1.15,2013-08-10 00:10:00,
2013-08-09 17:20:00,73.9,56.2,29.94,NNE,31,1.0,1.0,54,0.00,,,0.00,60,Wunderground v.1.15,2013-08-10 00:20:00,
2013-08-09 17:30:00,73.8,55.6,29.95,WSW,249,1.0,1.0,53,0.00,,,0.00,56,Wunderground v.1.15,2013-08-10 00:30:00,
2013-08-09 17:40:00,72.9,56.3,29.95,NE,52,1.0,1.0,56,0.00,,,0.00,90,Wunderground v.1.15,2013-08-10 00:40:00,
2013-08-09 17:50:00,72.2,56.6,29.95,NE,34,1.0,1.0,58,0.00,,,0.00,113,Wunderground v.1.15,2013-08-10 00:50:00,
2013-08-09 18:00:00,71.5,55.9,29.95,SSW,205,0.0,6.0,58,0.00,,,0.00,44,Wunderground v.1.15,2013-08-10 01:00:00,
2013-08-09 18:10:00,70.8,55.3,29.95,WNW,302,1.0,1.0,58,0.00,,,0.00,40,Wunderground v.1.15,2013-08-10 01:10:00,
2013-08-09 18:20:00,70.4,55.8,29.95,North,355,1.0,1.0,60,0.00,,,0.00,37,Wunderground v.1.15,2013-08-10 01:20:00,
2013-08-09 18:30:00,70.1,56.0,29.95,North,5,0.0,0.0,61,0.00,,,0.00,33,Wunderground v.1.15,2013-08-10 01:30:00,
2013-08-09 18:40:00,70.0,55.5,29.95,West,277,0.0,0.0,60,0.00,,,0.00,33,Wunderground v.1.15,2013-08-10 01:40:00,
2013-08-09 18:50:00,69.7,56.1,29.95,West,264,0.0,1.0,62,0.00,,,0.00,28,Wunderground v.1.15,2013-08-10 01:50:00,
2013-08-09 19:00:00,69.4,56.3,29.96,NW,316,0.0,0.0,63,0.00,,,0.00,28,Wunderground v.1.15,2013-08-10 02:00:00,
2013-08-09 19:10:00,68.6,55.9,29.96,SSW,203,1.0,1.0,64,0.00,,,0.00,25,Wunderground v.1.15,2013-08-10 02:10:00,
2013-08-09 19:20:00,67.7,55.9,29.96,WNW,294,1.0,1.0,66,0.00,,,0.00,21,Wunderground v.1.15,2013-08-10 02:20:00,
2013-08-09 19:30:00,66.9,55.6,29.97,East,88,0.0,1.0,67,0.00,,,0.00,18,Wunderground v.1.15,2013-08-10 02:30:00,
2013-08-09 19:40:00,66.1,55.2,29.97,NE,52,0.0,0.0,68,0.00,,,0.00,14,Wunderground v.1.15,2013-08-10 02:40:00,
2013-08-09 19:50:00,65.2,54.8,29.97,NNW,342,0.0,0.0,69,0.00,,,0.00,9,Wunderground v.1.15,2013-08-10 02:50:00,
2013-08-09 20:00:00,64.3,54.7,29.97,ENE,69,0.0,0.0,71,0.00,,,0.00,0,Wunderground v.1.15,2013-08-10 03:00:00,
2013-08-09 20:10:00,63.5,54.3,29.98,NW,320,0.0,1.0,72,0.00,,,0.00,0,Wunderground v.1.15,2013-08-10 03:10:00,
2013-08-09 20:20:00,62.7,54.3,29.97,SW,218,0.0,0.0,74,0.00,,,0.00,0,Wunderground v.1.15,2013-08-10 03:20:00,
2013-08-09 20:30:00,62.3,53.9,29.98,ENE,57,0.0,1.0,74,0.00,,,0.00,0,Wunderground v.1.15,2013-08-10 03:30:00,
2013-08-09 20:40:00,61.9,53.9,29.98,ENE,70,0.0,0.0,75,0.00,,,0.00,0,Wunderground v.1.15,2013-08-10 03:40:00,
2013-08-09 20:50:00,61.7,54.1,29.98,NE,44,0.0,0.0,76,0.00,,,0.00,0,Wunderground v.1.15,2013-08-10 03:50:00,
2013-08-09 21:00:00,61.1,53.8,29.98,NNE,16,1.0,1.0,77,0.00,,,0.00,0,Wunderground v.1.15,2013-08-10 04:00:00,
2013-08-09 21:10:00,60.9,54.0,29.99,NNE,16,0.0,0.0,78,0.00,,,0.00,0,Wunderground v.1.15,2013-08-10 04:10:00,
2013-08-09 21:20:00,60.7,53.8,29.99,NNE,16,0.0,0.0,78,0.00,,,0.00,0,Wunderground v.1.15,2013-08-10 04:20:00,
2013-08-09 21:30:00,60.5,53.6,30.00,NW,325,0.0,0.0,78,0.00,,,0.00,0,Wunderground v.1.15,2013-08-10 04:30:00,
2013-08-09 21:40:00,60.2,53.3,30.00,West,276,0.0,0.0,78,0.00,,,0.00,0,Wunderground v.1.15,2013-08-10 04:40:00,
2013-08-09 21:50:00,60.0,53.5,30.00,NNW,328,0.0,0.0,79,0.00,,,0.00,0,Wunderground v.1.15,2013-08-10 04:50:00,
2013-08-09 22:00:00,59.7,53.2,30.00,NNW,328,0.0,0.0,79,0.00,,,0.00,0,Wunderground v.1.15,2013-08-10 05:00:00,
2013-08-09 22:10:00,59.5,53.3,30.00,NW,307,0.0,0.0,80,0.00,,,0.00,0,Wunderground v.1.15,2013-08-10 05:10:00,
2013-08-09 22:20:00,59.4,53.2,30.01,NW,307,0.0,0.0,80,0.00,,,0.00,0,Wunderground v.1.15,2013-08-10 05:20:00,
2013-08-09 22:30:00,59.2,53.0,30.01,NW,304,0.0,1.0,80,0.00,,,0.00,0,Wunderground v.1.15,2013-08-10 05:30:00,
2013-08-09 22:40:00,59.0,53.2,30.01,NW,304,0.0,0.0,81,0.00,,,0.00,0,Wunderground v.1.15,2013-08-10 05:40:00,
2013-08-09 22:50:00,59.0,53.2,30.01,West,269,0.0,0.0,81,0.00,,,0.00,0,Wunderground v.1.15,2013-08-10 05:50:00,
2013-08-09 23:00:00,59.0,53.2,30.01,NW,317,0.0,0.0,81,0.00,,,0.00,0,Wunderground v.1.15,2013-08-10 06:00:00,
2013-08-09 23:10:00,59.0,53.5,30.01,NW,306,0.0,0.0,82,0.00,,,0.00,0,Wunderground v.1.15,2013-08-10 06:10:00,
2013-08-09 23:20:00,58.7,53.2,30.01,NW,306,0.0,0.0,82,0.00,,,0.00,0,Wunderground v.1.15,2013-08-10 06:20:00,
2013-08-09 23:30:00,58.6,53.5,30.01,NW,306,0.0,0.0,83,0.00,,,0.00,0,Wunderground v.1.15,2013-08-10 06:30:00,
2013-08-09 23:40:00,58.6,53.5,30.01,SSE,167,0.0,0.0,83,0.00,,,0.00,0,Wunderground v.1.15,2013-08-10 06:40:00,
2013-08-09 23:50:00,58.6,53.5,30.01,SSE,168,0.0,0.0,83,0.00,,,0.00,0,Wunderground v.1.15,2013-08-10 06:50:00,